owner,sensor,date,latitude,longitude,vertical_datum,wind_speed,wind_to_direction,wind_speed_of_gust,qcFlag 
TCOON,ioos:station:TCOON:009:1,2008-07-01T00:00:00Z,27.8398,-97.0727,0.0,5.6,130.0,7.0,'11111222,11111222,11111222' 
TCOON,ioos:station:TCOON:009:1,2008-07-01T01:00:00Z,27.8398,-97.0727,0.0,4.6,120.0,6.7,'11111222,11111222,11111222' 
TCOON,ioos:station:TCOON:009:1,2008-07-01T03:00:00Z,27.8398,-97.0727,0.0,3.4,143.0,5.3,'11111222,11111222,11111222' 
TCOON,ioos:station:TCOON:009:1,2008-07-01T04:00:00Z,27.8398,-97.0727,0.0,3.5,144.0,5.0,'11111222,11111222,11111222' 
TCOON,ioos:station:TCOON:009:1,2008-07-01T05:00:00Z,27.8398,-97.0727,0.0,2.8,144.0,4.1,'11111222,11111222,11111222' 
TCOON,ioos:station:TCOON:009:1,2008-07-01T06:00:00Z,27.8398,-97.0727,0.0,2.5,146.0,4.1,'11111222,11111222,11111222' 
TCOON,ioos:station:TCOON:009:1,2008-07-01T07:00:00Z,27.8398,-97.0727,0.0,2.2,150.0,2.8,'11111222,11111222,11111222' 
TCOON,ioos:station:TCOON:009:1,2008-07-01T08:00:00Z,27.8398,-97.0727,0.0,1.9,159.0,3.1,'11111222,11111222,11111222' 
TCOON,ioos:station:TCOON:009:1,2008-07-01T09:00:00Z,27.8398,-97.0727,0.0,2.1,158.0,3.3,'11111222,11111222,11111222' 
TCOON,ioos:station:TCOON:009:1,2008-07-01T10:00:00Z,27.8398,-97.0727,0.0,1.7,162.0,2.9,'11111222,11111222,11111222' 
TCOON,ioos:station:TCOON:009:1,2008-07-01T11:00:00Z,27.8398,-97.0727,0.0,0.9,168.0,1.5,'11111222,11111222,11111222' 
TCOON,ioos:station:TCOON:009:1,2008-07-01T12:00:00Z,27.8398,-97.0727,0.0,0.0,140.0,99.0,'11111222,11111222,11144222' 
TCOON,ioos:station:TCOON:009:1,2008-07-01T13:00:00Z,27.8398,-97.0727,0.0,1.7,194.0,2.3,'11111222,11111222,11111222' 
TCOON,ioos:station:TCOON:009:1,2008-07-01T14:00:00Z,27.8398,-97.0727,0.0,1.7,129.0,2.4,'11111222,11111222,11111222' 
TCOON,ioos:station:TCOON:009:1,2008-07-01T15:00:00Z,27.8398,-97.0727,0.0,2.2,129.0,2.8,'11111222,11111222,11111222' 
TCOON,ioos:station:TCOON:009:1,2008-07-01T16:00:00Z,27.8398,-97.0727,0.0,2.4,102.0,3.3,'11111222,11111222,11111222' 
TCOON,ioos:station:TCOON:009:1,2008-07-01T17:00:00Z,27.8398,-97.0727,0.0,2.7,130.0,4.9,'11111222,11111222,11111222' 
TCOON,ioos:station:TCOON:009:1,2008-07-01T19:00:00Z,27.8398,-97.0727,0.0,3.2,135.0,4.5,'11111222,11111222,11111222' 
TCOON,ioos:station:TCOON:009:1,2008-07-01T20:00:00Z,27.8398,-97.0727,0.0,4.1,117.0,5.2,'11111222,11111222,11111222' 
TCOON,ioos:station:TCOON:009:1,2008-07-01T21:00:00Z,27.8398,-97.0727,0.0,5.3,122.0,6.9,'11111222,11111222,11111222' 
TCOON,ioos:station:TCOON:009:1,2008-07-01T22:00:00Z,27.8398,-97.0727,0.0,4.7,121.0,5.9,'11111222,11111222,11111222' 
TCOON,ioos:station:TCOON:009:1,2008-07-01T23:00:00Z,27.8398,-97.0727,0.0,4.3,130.0,5.5,'11111222,11111222,11111222' 
TCOON,ioos:station:TCOON:009:1,2008-07-02T00:00:00Z,27.8398,-97.0727,0.0,2.8,141.0,4.5,'11111222,11111222,11111222' 
TCOON,ioos:station:TCOON:009:1,2008-07-02T01:00:00Z,27.8398,-97.0727,0.0,3.7,184.0,4.8,'11111222,11111222,11111222' 
TCOON,ioos:station:TCOON:009:1,2008-07-02T02:00:00Z,27.8398,-97.0727,0.0,2.7,197.0,3.8,'11111222,11111222,11111222' 
TCOON,ioos:station:TCOON:009:1,2008-07-02T03:00:00Z,27.8398,-97.0727,0.0,1.5,168.0,2.2,'11111222,11111222,11111222' 
TCOON,ioos:station:TCOON:009:1,2008-07-02T04:00:00Z,27.8398,-97.0727,0.0,0.8,161.0,1.2,'11111222,11111222,11111222' 
TCOON,ioos:station:TCOON:009:1,2008-07-02T05:00:00Z,27.8398,-97.0727,0.0,1.9,139.0,2.9,'11111222,11111222,11111222' 
TCOON,ioos:station:TCOON:009:1,2008-07-02T06:00:00Z,27.8398,-97.0727,0.0,1.8,164.0,2.5,'11111222,11111222,11111222' 
TCOON,ioos:station:TCOON:009:1,2008-07-02T07:00:00Z,27.8398,-97.0727,0.0,2.8,155.0,4.5,'11111222,11111222,11111222' 
TCOON,ioos:station:TCOON:009:1,2008-07-02T08:00:00Z,27.8398,-97.0727,0.0,2.9,154.0,4.1,'11111222,11111222,11111222' 
TCOON,ioos:station:TCOON:009:1,2008-07-02T09:00:00Z,27.8398,-97.0727,0.0,1.7,162.0,2.7,'11111222,11111222,11111222' 
TCOON,ioos:station:TCOON:009:1,2008-07-02T10:00:00Z,27.8398,-97.0727,0.0,2.4,137.0,3.4,'11111222,11111222,11111222' 
TCOON,ioos:station:TCOON:009:1,2008-07-02T11:00:00Z,27.8398,-97.0727,0.0,1.9,163.0,3.7,'11111222,11111222,11111222' 
TCOON,ioos:station:TCOON:009:1,2008-07-02T12:00:00Z,27.8398,-97.0727,0.0,0.5,157.0,1.3,'11111222,11111222,11111222' 
TCOON,ioos:station:TCOON:009:1,2008-07-02T13:00:00Z,27.8398,-97.0727,0.0,2.4,161.0,4.3,'11111222,11111222,11111222' 
TCOON,ioos:station:TCOON:009:1,2008-07-02T14:00:00Z,27.8398,-97.0727,0.0,1.3,145.0,2.0,'11111222,11111222,11111222' 
TCOON,ioos:station:TCOON:009:1,2008-07-02T15:00:00Z,27.8398,-97.0727,0.0,2.3,95.0,3.1,'11111222,11111222,11111222' 
TCOON,ioos:station:TCOON:009:1,2008-07-02T16:00:00Z,27.8398,-97.0727,0.0,4.3,183.0,6.1,'11111222,11111222,11111222' 
TCOON,ioos:station:TCOON:009:1,2008-07-02T17:00:00Z,27.8398,-97.0727,0.0,3.5,137.0,6.1,'11111222,11111222,11111222' 
TCOON,ioos:station:TCOON:009:1,2008-07-02T18:00:00Z,27.8398,-97.0727,0.0,4.4,113.0,5.6,'11111222,11111222,11111222' 
TCOON,ioos:station:TCOON:009:1,2008-07-02T19:00:00Z,27.8398,-97.0727,0.0,2.3,121.0,3.2,'11111222,11111222,11111222' 
TCOON,ioos:station:TCOON:009:1,2008-07-02T20:00:00Z,27.8398,-97.0727,0.0,1.6,146.0,2.6,'11111222,11111222,11111222' 
TCOON,ioos:station:TCOON:009:1,2008-07-02T21:00:00Z,27.8398,-97.0727,0.0,4.9,137.0,6.1,'11111222,11111222,11111222' 
TCOON,ioos:station:TCOON:009:1,2008-07-02T23:00:00Z,27.8398,-97.0727,0.0,4.9,120.0,6.9,'11111222,11111222,11111222' 
TCOON,ioos:station:TCOON:009:1,2008-07-03T00:00:00Z,27.8398,-97.0727,0.0,3.9,124.0,5.2,'11111222,11111222,11111222' 
TCOON,ioos:station:TCOON:009:1,2008-07-03T01:00:00Z,27.8398,-97.0727,0.0,4.8,130.0,6.6,'11111222,11111222,11111222' 
TCOON,ioos:station:TCOON:009:1,2008-07-03T02:00:00Z,27.8398,-97.0727,0.0,4.7,136.0,7.0,'11111222,11111222,11111222' 
TCOON,ioos:station:TCOON:009:1,2008-07-03T03:00:00Z,27.8398,-97.0727,0.0,4.0,145.0,6.0,'11111222,11111222,11111222' 
TCOON,ioos:station:TCOON:009:1,2008-07-03T04:00:00Z,27.8398,-97.0727,0.0,3.3,141.0,4.9,'11111222,11111222,11111222' 
TCOON,ioos:station:TCOON:009:1,2008-07-03T05:00:00Z,27.8398,-97.0727,0.0,2.7,170.0,5.1,'11111222,11111222,11111222' 
TCOON,ioos:station:TCOON:009:1,2008-07-03T06:00:00Z,27.8398,-97.0727,0.0,2.4,173.0,4.7,'11111222,11111222,11111222' 
TCOON,ioos:station:TCOON:009:1,2008-07-03T07:00:00Z,27.8398,-97.0727,0.0,3.7,176.0,5.6,'11111222,11111222,11111222' 
TCOON,ioos:station:TCOON:009:1,2008-07-03T08:00:00Z,27.8398,-97.0727,0.0,2.5,167.0,3.8,'11111222,11111222,11111222' 
TCOON,ioos:station:TCOON:009:1,2008-07-03T09:00:00Z,27.8398,-97.0727,0.0,3.4,155.0,5.9,'11111222,11111222,11111222' 
TCOON,ioos:station:TCOON:009:1,2008-07-03T10:00:00Z,27.8398,-97.0727,0.0,3.2,149.0,4.9,'11111222,11111222,11111222' 
TCOON,ioos:station:TCOON:009:1,2008-07-03T11:00:00Z,27.8398,-97.0727,0.0,2.3,153.0,4.1,'11111222,11111222,11111222' 
TCOON,ioos:station:TCOON:009:1,2008-07-03T12:00:00Z,27.8398,-97.0727,0.0,2.8,152.0,4.8,'11111222,11111222,11111222' 
TCOON,ioos:station:TCOON:009:1,2008-07-03T13:00:00Z,27.8398,-97.0727,0.0,2.8,149.0,4.1,'11111222,11111222,11111222' 
TCOON,ioos:station:TCOON:009:1,2008-07-03T15:00:00Z,27.8398,-97.0727,0.0,5.7,144.0,9.1,'11111222,11111222,11111222' 
TCOON,ioos:station:TCOON:009:1,2008-07-03T16:00:00Z,27.8398,-97.0727,0.0,3.9,151.0,6.5,'11111222,11111222,11111222' 
TCOON,ioos:station:TCOON:009:1,2008-07-03T17:00:00Z,27.8398,-97.0727,0.0,4.3,150.0,6.4,'11111222,11111222,11111222' 
TCOON,ioos:station:TCOON:009:1,2008-07-03T18:00:00Z,27.8398,-97.0727,0.0,2.6,139.0,4.2,'11111222,11111222,11111222' 
TCOON,ioos:station:TCOON:009:1,2008-07-03T19:00:00Z,27.8398,-97.0727,0.0,5.0,123.0,7.4,'11111222,11111222,11111222' 
TCOON,ioos:station:TCOON:009:1,2008-07-03T20:00:00Z,27.8398,-97.0727,0.0,5.9,120.0,8.3,'11111222,11111222,11111222' 
TCOON,ioos:station:TCOON:009:1,2008-07-03T21:00:00Z,27.8398,-97.0727,0.0,7.6,126.0,10.4,'11111222,11111222,11111222' 
TCOON,ioos:station:TCOON:009:1,2008-07-03T22:00:00Z,27.8398,-97.0727,0.0,9.3,127.0,12.4,'11111222,11111222,11111222' 
TCOON,ioos:station:TCOON:009:1,2008-07-03T23:00:00Z,27.8398,-97.0727,0.0,5.5,155.0,8.6,'11111222,11111222,11111222' 
TCOON,ioos:station:TCOON:009:1,2008-07-04T00:00:00Z,27.8398,-97.0727,0.0,4.6,166.0,7.3,'11111222,11111222,11111222' 
TCOON,ioos:station:TCOON:009:1,2008-07-04T01:00:00Z,27.8398,-97.0727,0.0,3.7,142.0,6.6,'11111222,11111222,11111222' 
TCOON,ioos:station:TCOON:009:1,2008-07-04T02:00:00Z,27.8398,-97.0727,0.0,4.1,157.0,6.7,'11111222,11111222,11111222' 
TCOON,ioos:station:TCOON:009:1,2008-07-04T03:00:00Z,27.8398,-97.0727,0.0,3.9,163.0,6.0,'11111222,11111222,11111222' 
TCOON,ioos:station:TCOON:009:1,2008-07-04T04:00:00Z,27.8398,-97.0727,0.0,4.4,175.0,7.2,'11111222,11111222,11111222' 
TCOON,ioos:station:TCOON:009:1,2008-07-04T05:00:00Z,27.8398,-97.0727,0.0,2.8,177.0,3.8,'11111222,11111222,11111222' 
TCOON,ioos:station:TCOON:009:1,2008-07-04T06:00:00Z,27.8398,-97.0727,0.0,2.9,179.0,4.0,'11111222,11111222,11111222' 
TCOON,ioos:station:TCOON:009:1,2008-07-04T07:00:00Z,27.8398,-97.0727,0.0,1.5,157.0,2.5,'11111222,11111222,11111222' 
TCOON,ioos:station:TCOON:009:1,2008-07-04T08:00:00Z,27.8398,-97.0727,0.0,2.0,168.0,3.7,'11111222,11111222,11111222' 
TCOON,ioos:station:TCOON:009:1,2008-07-04T09:00:00Z,27.8398,-97.0727,0.0,1.6,175.0,2.0,'11111222,11111222,11111222' 
TCOON,ioos:station:TCOON:009:1,2008-07-04T10:00:00Z,27.8398,-97.0727,0.0,1.1,155.0,1.8,'11111222,11111222,11111222' 
TCOON,ioos:station:TCOON:009:1,2008-07-04T11:00:00Z,27.8398,-97.0727,0.0,2.8,141.0,4.5,'11111222,11111222,11111222' 
TCOON,ioos:station:TCOON:009:1,2008-07-04T12:00:00Z,27.8398,-97.0727,0.0,6.6,130.0,8.4,'11111222,11111222,11111222' 
TCOON,ioos:station:TCOON:009:1,2008-07-04T13:00:00Z,27.8398,-97.0727,0.0,3.2,158.0,5.1,'11111222,11111222,11111222' 
TCOON,ioos:station:TCOON:009:1,2008-07-04T14:00:00Z,27.8398,-97.0727,0.0,4.9,124.0,6.4,'11111222,11111222,11111222' 
TCOON,ioos:station:TCOON:009:1,2008-07-04T15:00:00Z,27.8398,-97.0727,0.0,5.7,120.0,7.1,'11111222,11111222,11111222' 
TCOON,ioos:station:TCOON:009:1,2008-07-04T16:00:00Z,27.8398,-97.0727,0.0,5.6,123.0,7.9,'11111222,11111222,11111222' 
TCOON,ioos:station:TCOON:009:1,2008-07-04T17:00:00Z,27.8398,-97.0727,0.0,3.8,170.0,6.1,'11111222,11111222,11111222' 
TCOON,ioos:station:TCOON:009:1,2008-07-04T19:00:00Z,27.8398,-97.0727,0.0,5.2,177.0,6.9,'11111222,11111222,11111222' 
TCOON,ioos:station:TCOON:009:1,2008-07-04T20:00:00Z,27.8398,-97.0727,0.0,5.5,141.0,8.3,'11111222,11111222,11111222' 
TCOON,ioos:station:TCOON:009:1,2008-07-04T21:00:00Z,27.8398,-97.0727,0.0,6.1,165.0,9.6,'11111222,11111222,11111222' 
TCOON,ioos:station:TCOON:009:1,2008-07-04T22:00:00Z,27.8398,-97.0727,0.0,6.2,180.0,9.5,'11111222,11111222,11111222' 
TCOON,ioos:station:TCOON:009:1,2008-07-04T23:00:00Z,27.8398,-97.0727,0.0,4.1,165.0,6.8,'11111222,11111222,11111222' 
TCOON,ioos:station:TCOON:009:1,2008-07-05T00:00:00Z,27.8398,-97.0727,0.0,3.7,174.0,5.2,'11111222,11111222,11111222' 
TCOON,ioos:station:TCOON:009:1,2008-07-05T01:00:00Z,27.8398,-97.0727,0.0,1.9,116.0,2.6,'11111222,11111222,11111222' 
TCOON,ioos:station:TCOON:009:1,2008-07-05T02:00:00Z,27.8398,-97.0727,0.0,1.0,151.0,1.5,'11111222,11111222,11111222' 
TCOON,ioos:station:TCOON:009:1,2008-07-05T03:00:00Z,27.8398,-97.0727,0.0,1.9,146.0,3.5,'11111222,11111222,11111222' 
TCOON,ioos:station:TCOON:009:1,2008-07-05T04:00:00Z,27.8398,-97.0727,0.0,0.6,125.0,0.9,'11111222,11111222,11111222' 
TCOON,ioos:station:TCOON:009:1,2008-07-05T05:00:00Z,27.8398,-97.0727,0.0,1.5,142.0,2.5,'11111222,11111222,11111222' 
TCOON,ioos:station:TCOON:009:1,2008-07-05T06:00:00Z,27.8398,-97.0727,0.0,2.2,121.0,3.2,'11111222,11111222,11111222' 
TCOON,ioos:station:TCOON:009:1,2008-07-05T07:00:00Z,27.8398,-97.0727,0.0,3.5,118.0,4.3,'11111222,11111222,11111222' 
TCOON,ioos:station:TCOON:009:1,2008-07-05T08:00:00Z,27.8398,-97.0727,0.0,2.7,103.0,3.7,'11111222,11111222,11111222' 
TCOON,ioos:station:TCOON:009:1,2008-07-05T09:00:00Z,27.8398,-97.0727,0.0,3.5,127.0,4.6,'11111222,11111222,11111222' 
TCOON,ioos:station:TCOON:009:1,2008-07-05T10:00:00Z,27.8398,-97.0727,0.0,3.3,117.0,4.4,'11111222,11111222,11111222' 
TCOON,ioos:station:TCOON:009:1,2008-07-05T11:00:00Z,27.8398,-97.0727,0.0,3.8,103.0,4.8,'11111222,11111222,11111222' 
TCOON,ioos:station:TCOON:009:1,2008-07-05T12:00:00Z,27.8398,-97.0727,0.0,2.7,113.0,4.9,'11111222,11111222,11111222' 
TCOON,ioos:station:TCOON:009:1,2008-07-05T13:00:00Z,27.8398,-97.0727,0.0,3.9,109.0,5.8,'11111222,11111222,11111222' 
TCOON,ioos:station:TCOON:009:1,2008-07-05T14:00:00Z,27.8398,-97.0727,0.0,3.3,102.0,4.6,'11111222,11111222,11111222' 
TCOON,ioos:station:TCOON:009:1,2008-07-05T15:00:00Z,27.8398,-97.0727,0.0,4.5,103.0,6.7,'11111222,11111222,11111222' 
TCOON,ioos:station:TCOON:009:1,2008-07-05T16:00:00Z,27.8398,-97.0727,0.0,4.6,104.0,5.7,'11111222,11111222,11111222' 
TCOON,ioos:station:TCOON:009:1,2008-07-05T17:00:00Z,27.8398,-97.0727,0.0,4.5,113.0,5.5,'11111222,11111222,11111222' 
TCOON,ioos:station:TCOON:009:1,2008-07-05T18:00:00Z,27.8398,-97.0727,0.0,5.2,124.0,6.3,'11111222,11111222,11111222' 
TCOON,ioos:station:TCOON:009:1,2008-07-05T19:00:00Z,27.8398,-97.0727,0.0,3.8,125.0,5.1,'11111222,11111222,11111222' 
TCOON,ioos:station:TCOON:009:1,2008-07-05T20:00:00Z,27.8398,-97.0727,0.0,4.4,122.0,5.4,'11111222,11111222,11111222' 
TCOON,ioos:station:TCOON:009:1,2008-07-05T21:00:00Z,27.8398,-97.0727,0.0,4.1,116.0,5.5,'11111222,11111222,11111222' 
TCOON,ioos:station:TCOON:009:1,2008-07-05T22:00:00Z,27.8398,-97.0727,0.0,9.4,187.0,13.6,'11111222,11111222,11111222' 
TCOON,ioos:station:TCOON:009:1,2008-07-05T23:00:00Z,27.8398,-97.0727,0.0,5.7,189.0,8.3,'11111222,11111222,11111222' 
TCOON,ioos:station:TCOON:009:1,2008-07-06T00:00:00Z,27.8398,-97.0727,0.0,2.0,228.0,2.8,'11111222,11111222,11111222' 
TCOON,ioos:station:TCOON:009:1,2008-07-06T01:00:00Z,27.8398,-97.0727,0.0,0.8,202.0,1.6,'11111222,11111222,11111222' 
TCOON,ioos:station:TCOON:009:1,2008-07-06T02:00:00Z,27.8398,-97.0727,0.0,0.5,212.0,0.9,'11111222,11111222,11111222' 
TCOON,ioos:station:TCOON:009:1,2008-07-06T03:00:00Z,27.8398,-97.0727,0.0,0.8,191.0,1.1,'11111222,11111222,11111222' 
TCOON,ioos:station:TCOON:009:1,2008-07-06T04:00:00Z,27.8398,-97.0727,0.0,1.3,91.0,1.6,'11111222,11111222,11111222' 
TCOON,ioos:station:TCOON:009:1,2008-07-06T05:00:00Z,27.8398,-97.0727,0.0,1.8,100.0,2.1,'11111222,11111222,11111222' 
TCOON,ioos:station:TCOON:009:1,2008-07-06T06:00:00Z,27.8398,-97.0727,0.0,2.5,85.0,3.0,'11111222,11111222,11111222' 
TCOON,ioos:station:TCOON:009:1,2008-07-06T07:00:00Z,27.8398,-97.0727,0.0,2.0,34.0,2.5,'11111222,11111222,11111222' 
TCOON,ioos:station:TCOON:009:1,2008-07-06T08:00:00Z,27.8398,-97.0727,0.0,2.7,89.0,3.7,'11111222,11111222,11111222' 
TCOON,ioos:station:TCOON:009:1,2008-07-06T09:00:00Z,27.8398,-97.0727,0.0,3.0,93.0,3.8,'11111222,11111222,11111222' 
TCOON,ioos:station:TCOON:009:1,2008-07-06T10:00:00Z,27.8398,-97.0727,0.0,3.5,86.0,4.5,'11111222,11111222,11111222' 
TCOON,ioos:station:TCOON:009:1,2008-07-06T11:00:00Z,27.8398,-97.0727,0.0,2.7,99.0,3.5,'11111222,11111222,11111222' 
TCOON,ioos:station:TCOON:009:1,2008-07-06T12:00:00Z,27.8398,-97.0727,0.0,4.3,189.0,6.7,'11111222,11111222,11111222' 
TCOON,ioos:station:TCOON:009:1,2008-07-06T13:00:00Z,27.8398,-97.0727,0.0,3.5,191.0,4.8,'11111222,11111222,11111222' 
TCOON,ioos:station:TCOON:009:1,2008-07-06T14:00:00Z,27.8398,-97.0727,0.0,2.4,188.0,4.2,'11111222,11111222,11111222' 
TCOON,ioos:station:TCOON:009:1,2008-07-06T15:00:00Z,27.8398,-97.0727,0.0,2.0,155.0,3.0,'11111222,11111222,11111222' 
TCOON,ioos:station:TCOON:009:1,2008-07-06T16:00:00Z,27.8398,-97.0727,0.0,2.4,119.0,3.9,'11111222,11111222,11111222' 
TCOON,ioos:station:TCOON:009:1,2008-07-06T17:00:00Z,27.8398,-97.0727,0.0,2.9,95.0,3.9,'11111222,11111222,11111222' 
TCOON,ioos:station:TCOON:009:1,2008-07-06T18:00:00Z,27.8398,-97.0727,0.0,5.5,69.0,6.8,'11111222,11111222,11111222' 
TCOON,ioos:station:TCOON:009:1,2008-07-06T19:00:00Z,27.8398,-97.0727,0.0,5.4,63.0,7.0,'11111222,11111222,11111222' 
TCOON,ioos:station:TCOON:009:1,2008-07-06T20:00:00Z,27.8398,-97.0727,0.0,5.9,69.0,6.9,'11111222,11111222,11111222' 
TCOON,ioos:station:TCOON:009:1,2008-07-06T21:00:00Z,27.8398,-97.0727,0.0,4.5,84.0,6.2,'11111222,11111222,11111222' 
TCOON,ioos:station:TCOON:009:1,2008-07-06T22:00:00Z,27.8398,-97.0727,0.0,6.4,87.0,8.1,'11111222,11111222,11111222' 
TCOON,ioos:station:TCOON:009:1,2008-07-06T23:00:00Z,27.8398,-97.0727,0.0,3.5,132.0,5.2,'11111222,11111222,11111222' 
TCOON,ioos:station:TCOON:009:1,2008-07-07T00:00:00Z,27.8398,-97.0727,0.0,5.7,122.0,7.2,'11111222,11111222,11111222' 
TCOON,ioos:station:TCOON:009:1,2008-07-07T01:00:00Z,27.8398,-97.0727,0.0,5.2,177.0,7.6,'11111222,11111222,11111222' 
TCOON,ioos:station:TCOON:009:1,2008-07-07T02:00:00Z,27.8398,-97.0727,0.0,1.8,179.0,2.7,'11111222,11111222,11111222' 
TCOON,ioos:station:TCOON:009:1,2008-07-07T03:00:00Z,27.8398,-97.0727,0.0,2.9,114.0,3.5,'11111222,11111222,11111222' 
TCOON,ioos:station:TCOON:009:1,2008-07-07T04:00:00Z,27.8398,-97.0727,0.0,4.3,97.0,5.5,'11111222,11111222,11111222' 
TCOON,ioos:station:TCOON:009:1,2008-07-07T05:00:00Z,27.8398,-97.0727,0.0,3.7,107.0,5.2,'11111222,11111222,11111222' 
TCOON,ioos:station:TCOON:009:1,2008-07-07T06:00:00Z,27.8398,-97.0727,0.0,3.0,118.0,4.3,'11111222,11111222,11111222' 
TCOON,ioos:station:TCOON:009:1,2008-07-07T07:00:00Z,27.8398,-97.0727,0.0,4.3,111.0,5.4,'11111222,11111222,11111222' 
TCOON,ioos:station:TCOON:009:1,2008-07-07T08:00:00Z,27.8398,-97.0727,0.0,4.2,103.0,5.8,'11111222,11111222,11111222' 
TCOON,ioos:station:TCOON:009:1,2008-07-07T09:00:00Z,27.8398,-97.0727,0.0,4.1,100.0,6.3,'11111222,11111222,11111222' 
TCOON,ioos:station:TCOON:009:1,2008-07-07T10:00:00Z,27.8398,-97.0727,0.0,4.1,102.0,5.7,'11111222,11111222,11111222' 
TCOON,ioos:station:TCOON:009:1,2008-07-07T11:00:00Z,27.8398,-97.0727,0.0,4.4,98.0,6.9,'11111222,11111222,11111222' 
TCOON,ioos:station:TCOON:009:1,2008-07-07T12:00:00Z,27.8398,-97.0727,0.0,4.7,96.0,6.2,'11111222,11111222,11111222' 
TCOON,ioos:station:TCOON:009:1,2008-07-07T13:00:00Z,27.8398,-97.0727,0.0,6.0,90.0,8.1,'11111222,11111222,11111222' 
TCOON,ioos:station:TCOON:009:1,2008-07-07T14:00:00Z,27.8398,-97.0727,0.0,4.3,102.0,6.1,'11111222,11111222,11111222' 
TCOON,ioos:station:TCOON:009:1,2008-07-07T15:00:00Z,27.8398,-97.0727,0.0,5.7,101.0,7.3,'11111222,11111222,11111222' 
TCOON,ioos:station:TCOON:009:1,2008-07-07T16:00:00Z,27.8398,-97.0727,0.0,5.1,109.0,7.3,'11111222,11111222,11111222' 
TCOON,ioos:station:TCOON:009:1,2008-07-07T18:00:00Z,27.8398,-97.0727,0.0,5.2,118.0,7.6,'11111222,11111222,11111222' 
TCOON,ioos:station:TCOON:009:1,2008-07-07T19:00:00Z,27.8398,-97.0727,0.0,6.7,118.0,9.2,'11111222,11111222,11111222' 
TCOON,ioos:station:TCOON:009:1,2008-07-07T20:00:00Z,27.8398,-97.0727,0.0,7.0,124.0,9.1,'11111222,11111222,11111222' 
TCOON,ioos:station:TCOON:009:1,2008-07-07T21:00:00Z,27.8398,-97.0727,0.0,5.9,126.0,7.6,'11111222,11111222,11111222' 
TCOON,ioos:station:TCOON:009:1,2008-07-07T22:00:00Z,27.8398,-97.0727,0.0,5.4,118.0,7.1,'11111222,11111222,11111222' 
TCOON,ioos:station:TCOON:009:1,2008-07-07T23:00:00Z,27.8398,-97.0727,0.0,5.3,133.0,8.1,'11111222,11111222,11111222' 
TCOON,ioos:station:TCOON:009:1,2008-07-08T00:00:00Z,27.8398,-97.0727,0.0,3.6,131.0,5.9,'11111222,11111222,11111222' 
TCOON,ioos:station:TCOON:009:1,2008-07-08T01:00:00Z,27.8398,-97.0727,0.0,0.0,189.0,99.0,'11111222,11111222,11144222' 
TCOON,ioos:station:TCOON:009:1,2008-07-08T02:00:00Z,27.8398,-97.0727,0.0,2.3,104.0,2.6,'11111222,11111222,11111222' 
TCOON,ioos:station:TCOON:009:1,2008-07-08T03:00:00Z,27.8398,-97.0727,0.0,2.8,120.0,3.7,'11111222,11111222,11111222' 
TCOON,ioos:station:TCOON:009:1,2008-07-08T04:00:00Z,27.8398,-97.0727,0.0,3.1,131.0,4.4,'11111222,11111222,11111222' 
TCOON,ioos:station:TCOON:009:1,2008-07-08T05:00:00Z,27.8398,-97.0727,0.0,3.0,137.0,4.6,'11111222,11111222,11111222' 
TCOON,ioos:station:TCOON:009:1,2008-07-08T06:00:00Z,27.8398,-97.0727,0.0,3.5,120.0,4.9,'11111222,11111222,11111222' 
TCOON,ioos:station:TCOON:009:1,2008-07-08T07:00:00Z,27.8398,-97.0727,0.0,3.4,112.0,4.6,'11111222,11111222,11111222' 
TCOON,ioos:station:TCOON:009:1,2008-07-08T08:00:00Z,27.8398,-97.0727,0.0,4.2,112.0,6.3,'11111222,11111222,11111222' 
TCOON,ioos:station:TCOON:009:1,2008-07-08T09:00:00Z,27.8398,-97.0727,0.0,4.4,107.0,5.7,'11111222,11111222,11111222' 
TCOON,ioos:station:TCOON:009:1,2008-07-08T10:00:00Z,27.8398,-97.0727,0.0,4.3,104.0,6.2,'11111222,11111222,11111222' 
TCOON,ioos:station:TCOON:009:1,2008-07-08T11:00:00Z,27.8398,-97.0727,0.0,3.9,110.0,5.7,'11111222,11111222,11111222' 
TCOON,ioos:station:TCOON:009:1,2008-07-08T12:00:00Z,27.8398,-97.0727,0.0,3.3,110.0,5.0,'11111222,11111222,11111222' 
TCOON,ioos:station:TCOON:009:1,2008-07-08T13:00:00Z,27.8398,-97.0727,0.0,3.3,108.0,4.5,'11111222,11111222,11111222' 
TCOON,ioos:station:TCOON:009:1,2008-07-08T14:00:00Z,27.8398,-97.0727,0.0,4.6,109.0,6.7,'11111222,11111222,11111222' 
TCOON,ioos:station:TCOON:009:1,2008-07-08T15:00:00Z,27.8398,-97.0727,0.0,5.4,117.0,7.2,'11111222,11111222,11111222' 
TCOON,ioos:station:TCOON:009:1,2008-07-08T16:00:00Z,27.8398,-97.0727,0.0,6.8,126.0,8.7,'11111222,11111222,11111222' 
TCOON,ioos:station:TCOON:009:1,2008-07-08T17:00:00Z,27.8398,-97.0727,0.0,6.5,127.0,8.7,'11111222,11111222,11111222' 
TCOON,ioos:station:TCOON:009:1,2008-07-08T19:00:00Z,27.8398,-97.0727,0.0,4.9,122.0,7.8,'11111222,11111222,11111222' 
TCOON,ioos:station:TCOON:009:1,2008-07-08T20:00:00Z,27.8398,-97.0727,0.0,6.4,134.0,8.6,'11111222,11111222,11111222' 
TCOON,ioos:station:TCOON:009:1,2008-07-08T21:00:00Z,27.8398,-97.0727,0.0,4.6,123.0,6.5,'11111222,11111222,11111222' 
TCOON,ioos:station:TCOON:009:1,2008-07-08T22:00:00Z,27.8398,-97.0727,0.0,2.4,242.0,3.5,'11111222,11111222,11111222' 
TCOON,ioos:station:TCOON:009:1,2008-07-08T23:00:00Z,27.8398,-97.0727,0.0,1.6,319.0,1.8,'11111222,11111222,11111222' 
TCOON,ioos:station:TCOON:009:1,2008-07-09T00:00:00Z,27.8398,-97.0727,0.0,0.2,300.0,0.5,'11111222,11111222,11111222' 
TCOON,ioos:station:TCOON:009:1,2008-07-09T01:00:00Z,27.8398,-97.0727,0.0,1.8,11.0,2.1,'11111222,11111222,11111222' 
TCOON,ioos:station:TCOON:009:1,2008-07-09T02:00:00Z,27.8398,-97.0727,0.0,2.1,56.0,2.4,'11111222,11111222,11111222' 
TCOON,ioos:station:TCOON:009:1,2008-07-09T03:00:00Z,27.8398,-97.0727,0.0,2.0,113.0,2.7,'11111222,11111222,11111222' 
TCOON,ioos:station:TCOON:009:1,2008-07-09T04:00:00Z,27.8398,-97.0727,0.0,2.9,128.0,4.0,'11111222,11111222,11111222' 
TCOON,ioos:station:TCOON:009:1,2008-07-09T05:00:00Z,27.8398,-97.0727,0.0,1.4,124.0,1.7,'11111222,11111222,11111222' 
TCOON,ioos:station:TCOON:009:1,2008-07-09T06:00:00Z,27.8398,-97.0727,0.0,1.9,149.0,2.9,'11111222,11111222,11111222' 
TCOON,ioos:station:TCOON:009:1,2008-07-09T07:00:00Z,27.8398,-97.0727,0.0,3.1,125.0,4.1,'11111222,11111222,11111222' 
TCOON,ioos:station:TCOON:009:1,2008-07-09T08:00:00Z,27.8398,-97.0727,0.0,2.2,132.0,3.7,'11111222,11111222,11111222' 
TCOON,ioos:station:TCOON:009:1,2008-07-09T09:00:00Z,27.8398,-97.0727,0.0,2.2,146.0,3.3,'11111222,11111222,11111222' 
TCOON,ioos:station:TCOON:009:1,2008-07-09T10:00:00Z,27.8398,-97.0727,0.0,1.7,139.0,2.4,'11111222,11111222,11111222' 
TCOON,ioos:station:TCOON:009:1,2008-07-09T11:00:00Z,27.8398,-97.0727,0.0,2.4,132.0,3.5,'11111222,11111222,11111222' 
TCOON,ioos:station:TCOON:009:1,2008-07-09T12:00:00Z,27.8398,-97.0727,0.0,2.5,126.0,4.3,'11111222,11111222,11111222' 
TCOON,ioos:station:TCOON:009:1,2008-07-09T13:00:00Z,27.8398,-97.0727,0.0,2.8,120.0,8.7,'11111222,11111222,11111222' 
TCOON,ioos:station:TCOON:009:1,2008-07-09T14:00:00Z,27.8398,-97.0727,0.0,4.4,112.0,5.5,'11111222,11111222,11111222' 
TCOON,ioos:station:TCOON:009:1,2008-07-09T15:00:00Z,27.8398,-97.0727,0.0,3.8,120.0,4.9,'11111222,11111222,11111222' 
TCOON,ioos:station:TCOON:009:1,2008-07-09T16:00:00Z,27.8398,-97.0727,0.0,5.0,119.0,6.1,'11111222,11111222,11111222' 
TCOON,ioos:station:TCOON:009:1,2008-07-09T17:00:00Z,27.8398,-97.0727,0.0,4.8,112.0,6.9,'11111222,11111222,11111222' 
TCOON,ioos:station:TCOON:009:1,2008-07-09T18:00:00Z,27.8398,-97.0727,0.0,4.4,134.0,6.8,'11111222,11111222,11111222' 